Hourly Weather Melbourne

Today, 30 September, Wednesday

Time Temperature Precipitation Wind Pressure Humidity
00:00 +14°C° 0 mm 4 mps 760 mmHg 65%
01:00 +14°C° 0 mm 4 mps 759 mmHg 66%
02:00 +14°C° 0.1 mm 4 mps 759 mmHg 69%
03:00 +13°C° 0.1 mm 4 mps 759 mmHg 72%
04:00 +13°C° 0 mm 3 mps 758 mmHg 68%
05:00 +13°C° 0 mm 3 mps 758 mmHg 70%
06:00 +13°C° 0 mm 4 mps 758 mmHg 72%
07:00 +13°C° 0 mm 4 mps 758 mmHg 73%
08:00 +14°C° 0 mm 5 mps 757 mmHg 71%
09:00 +14°C° 0 mm 5 mps 757 mmHg 69%
10:00 +15°C° 0 mm 7 mps 757 mmHg 67%
11:00 +15°C° 0 mm 7 mps 756 mmHg 68%
12:00 +15°C° 0 mm 7 mps 756 mmHg 70%
13:00 +15°C° 0 mm 6 mps 755 mmHg 72%
14:00 +15°C° 0 mm 6 mps 755 mmHg 72%
15:00 +15°C° 0 mm 6 mps 754 mmHg 72%
16:00 +16°C° 0 mm 5 mps 753 mmHg 75%
17:00 +15°C° 0.8 mm 5 mps 753 mmHg 79%
18:00 +14°C° 0.8 mm 4 mps 754 mmHg 83%
19:00 +14°C° 0.8 mm 4 mps 754 mmHg 87%
20:00 +14°C° 0.6 mm 4 mps 754 mmHg 86%
21:00 +13°C° 0.6 mm 4 mps 755 mmHg 84%
22:00 +13°C° 0.6 mm 5 mps 756 mmHg 82%
23:00 +12°C° 0 mm 5 mps 756 mmHg 80%

Tomorrow, 1 October, Thursday

Time Temperature Precipitation Wind Pressure Humidity
00:00 +10°C° 0 mm 5 mps 756 mmHg 78%
01:00 +9°C° 0 mm 5 mps 757 mmHg 76%
02:00 +8°C° 0 mm 4 mps 757 mmHg 77%
03:00 +8°C° 0 mm 4 mps 757 mmHg 77%
04:00 +7°C° 0 mm 4 mps 758 mmHg 78%
05:00 +8°C° 0 mm 3 mps 759 mmHg 78%
06:00 +8°C° 0 mm 3 mps 759 mmHg 78%
07:00 +8°C° 0 mm 3 mps 760 mmHg 78%
08:00 +10°C° 0 mm 3 mps 760 mmHg 68%
09:00 +12°C° 0 mm 3 mps 761 mmHg 59%
10:00 +14°C° 0 mm 3 mps 761 mmHg 49%
11:00 +16°C° 0 mm 3 mps 760 mmHg 46%
12:00 +17°C° 0 mm 3 mps 760 mmHg 42%
13:00 +18°C° 0 mm 2 mps 760 mmHg 39%
14:00 +19°C° 0 mm 3 mps 760 mmHg 41%
15:00 +19°C° 0 mm 3 mps 760 mmHg 42%
16:00 +19°C° 0 mm 3 mps 759 mmHg 44%
17:00 +18°C° 0 mm 4 mps 760 mmHg 50%
18:00 +17°C° 0 mm 4 mps 760 mmHg 56%
19:00 +14°C° 0 mm 4 mps 761 mmHg 62%
20:00 +14°C° 0 mm 4 mps 761 mmHg 63%
21:00 +13°C° 0 mm 4 mps 762 mmHg 64%
22:00 +13°C° 0 mm 4 mps 762 mmHg 66%
23:00 +12°C° 0 mm 4 mps 762 mmHg 65%

Day after tomorrow, 2 October, Friday

Time Temperature Precipitation Wind Pressure Humidity
00:00 +12°C° 0 mm 4 mps 762 mmHg 64%
01:00 +12°C° 0 mm 4 mps 762 mmHg 63%
02:00 +12°C° 0 mm 5 mps 761 mmHg 62%
03:00 +11°C° 0 mm 6 mps 761 mmHg 61%
04:00 +11°C° 0 mm 6 mps 761 mmHg 61%
05:00 +11°C° 0 mm 7 mps 761 mmHg 60%
06:00 +11°C° 0 mm 7 mps 762 mmHg 59%
07:00 +12°C° 0 mm 7 mps 762 mmHg 59%
08:00 +15°C° 0 mm 8 mps 762 mmHg 54%
09:00 +17°C° 0 mm 8 mps 762 mmHg 50%
10:00 +20°C° 0 mm 8 mps 762 mmHg 46%
11:00 +21°C° 0 mm 8 mps 762 mmHg 45%
12:00 +23°C° 0 mm 7 mps 762 mmHg 44%
13:00 +24°C° 0 mm 7 mps 762 mmHg 43%
14:00 +24°C° 0 mm 7 mps 761 mmHg 46%
15:00 +24°C° 0 mm 7 mps 761 mmHg 50%
16:00 +24°C° 0 mm 7 mps 761 mmHg 53%
17:00 +23°C° 0 mm 7 mps 761 mmHg 55%
18:00 +23°C° 0 mm 6 mps 761 mmHg 58%
19:00 +22°C° 0 mm 6 mps 761 mmHg 61%
20:00 +21°C° 0 mm 6 mps 761 mmHg 61%
21:00 +21°C° 0 mm 7 mps 761 mmHg 61%
22:00 +21°C° 0 mm 7 mps 761 mmHg 61%
23:00 +21°C° 0 mm 7 mps 761 mmHg 60%

3 October, Saturday

Time Temperature Precipitation Wind Pressure Humidity
00:00 +21°C° 0 mm 7 mps 761 mmHg 58%
01:00 +21°C° 0 mm 7 mps 761 mmHg 57%
02:00 +20°C° 0 mm 7 mps 761 mmHg 56%
03:00 +20°C° 0 mm 8 mps 761 mmHg 55%
04:00 +18°C° 0 mm 8 mps 761 mmHg 55%
05:00 +18°C° 0 mm 8 mps 761 mmHg 54%
06:00 +18°C° 0 mm 8 mps 761 mmHg 53%
07:00 +18°C° 0 mm 8 mps 761 mmHg 53%
08:00 +20°C° 0 mm 8 mps 761 mmHg 50%
09:00 +21°C° 0 mm 9 mps 761 mmHg 47%
10:00 +23°C° 0 mm 9 mps 761 mmHg 44%
11:00 +24°C° 0 mm 9 mps 761 mmHg 45%
12:00 +24°C° 0 mm 8 mps 760 mmHg 45%
13:00 +26°C° 0 mm 8 mps 760 mmHg 46%
14:00 +27°C° 0 mm 8 mps 759 mmHg 45%
15:00 +27°C° 0 mm 8 mps 759 mmHg 45%
16:00 +28°C° 0 mm 7 mps 759 mmHg 44%
17:00 +27°C° 0 mm 7 mps 759 mmHg 45%
18:00 +26°C° 0 mm 7 mps 759 mmHg 46%
19:00 +24°C° 0 mm 7 mps 760 mmHg 46%
20:00 +23°C° 0 mm 6 mps 760 mmHg 51%
21:00 +22°C° 0 mm 5 mps 760 mmHg 55%
22:00 +21°C° 0 mm 4 mps 760 mmHg 59%
23:00 +19°C° 0 mm 4 mps 760 mmHg 68%

4 October, Sunday

Time Temperature Precipitation Wind Pressure Humidity
00:00 +18°C° 0 mm 4 mps 760 mmHg 76%
01:00 +16°C° 0 mm 3 mps 760 mmHg 84%
02:00 +16°C° 0 mm 3 mps 760 mmHg 85%
03:00 +15°C° 0 mm 2 mps 759 mmHg 87%
04:00 +15°C° 0 mm 2 mps 759 mmHg 88%
05:00 +16°C° 0 mm 2 mps 759 mmHg 81%
06:00 +16°C° 0 mm 2 mps 759 mmHg 74%
07:00 +17°C° 0 mm 2 mps 758 mmHg 67%
08:00 +19°C° 0 mm 3 mps 758 mmHg 61%
09:00 +21°C° 0 mm 4 mps 757 mmHg 54%
10:00 +23°C° 0 mm 5 mps 756 mmHg 48%
11:00 +26°C° 0 mm 6 mps 756 mmHg 47%
12:00 +27°C° 0 mm 7 mps 755 mmHg 45%
13:00 +29°C° 0 mm 7 mps 755 mmHg 44%
14:00 +29°C° 0.1 mm 7 mps 754 mmHg 45%
15:00 +28°C° 0.1 mm 6 mps 754 mmHg 47%
16:00 +27°C° 0.1 mm 6 mps 754 mmHg 49%
17:00 +23°C° 0.8 mm 6 mps 755 mmHg 62%
18:00 +19°C° 0.8 mm 5 mps 755 mmHg 75%
19:00 +14°C° 0.8 mm 5 mps 756 mmHg 88%
20:00 +13°C° 2 mm 5 mps 757 mmHg 89%
21:00 +13°C° 2 mm 6 mps 758 mmHg 89%
22:00 +11°C° 2 mm 6 mps 759 mmHg 89%
23:00 +10°C° 3.1 mm 6 mps 759 mmHg 90%

5 October, Monday

Time Temperature Precipitation Wind Pressure Humidity
00:00 +10°C° 3.1 mm 6 mps 759 mmHg 90%
01:00 +9°C° 3.1 mm 6 mps 760 mmHg 91%
02:00 +9°C° 2.6 mm 6 mps 760 mmHg 90%
03:00 +9°C° 2.6 mm 6 mps 761 mmHg 90%
04:00 +9°C° 2.6 mm 6 mps 761 mmHg 90%
05:00 +9°C° 0.2 mm 5 mps 762 mmHg 87%
06:00 +9°C° 0.2 mm 5 mps 763 mmHg 84%
07:00 +10°C° 0.2 mm 4 mps 764 mmHg 81%
08:00 +11°C° 0 mm 4 mps 765 mmHg 75%
09:00 +11°C° 0 mm 4 mps 765 mmHg 69%
10:00 +12°C° 0 mm 4 mps 765 mmHg 63%
11:00 +13°C° 0 mm 5 mps 765 mmHg 59%
12:00 +14°C° 0 mm 5 mps 765 mmHg 55%
13:00 +15°C° 0 mm 5 mps 765 mmHg 50%
14:00 +15°C° 0 mm 5 mps 765 mmHg 52%
15:00 +14°C° 0 mm 6 mps 766 mmHg 54%
16:00 +14°C° 0 mm 6 mps 766 mmHg 57%
17:00 +13°C° 0 mm 5 mps 766 mmHg 60%
18:00 +12°C° 0 mm 5 mps 767 mmHg 63%
19:00 +11°C° 0 mm 4 mps 767 mmHg 66%
20:00 +11°C° 0 mm 4 mps 767 mmHg 67%
21:00 +10°C° 0 mm 4 mps 768 mmHg 68%
22:00 +10°C° 0 mm 4 mps 768 mmHg 69%
23:00 +10°C° 0 mm 4 mps 768 mmHg 71%
Show more

We Need Your Consent

Meteoprog and our Service Providers may store and access personal data such as cookies, device identifiers or other similar technologies on your device and process such data to personalise content and ads, as well as provide social media features and to analyse the traffic.

  • Store and/or access information on your device

    Cookies, device identifiers or other information can be stored or accessed on your device for the purposes indicated above.

  • Personalised ads and content, ad and content measurement, audience insights, and products development

    Ads and content can be personalised based on a profile. More data can be added to better personalise ads and content. Ad and content performance can be measured. Insights about the audience who saw the ads and content can be derived. Such data can be used to develop or improve user’s experience, systems and software.

By clicking ‘I Agree’ you will allow the use of indicated cookies, device identifiers, web beacons or other similar technologies. Your settings can be changed in the browser on your device.

For certain purposes, legitimate interests may be relied on, rather than consent. You can read more about this in our Privacy and Cookie Policy.